Location: Launois
(49.6535°N, 4.5395°E)
Time: 20:26:24
(UTC+00:00)

Cosmos 1833 Rocket - Pass Details

Date: 23 May 2024
Orbit: 832 x 839 km, 71.0° (Epoch: 14 June)

Event Time Altitude Azimuth Distance (km) Brightness Sun altitude
Exits shadow 00:08:18 25° 231° (SW) 1,605 3.8 -19.4°
Maximum altitude 00:11:28 61° 303° (WNW) 948 3.0 -19.3°
Drops below altitude 10° 00:17:03 10° 24° (NNE) 2,455 6.3 -19.2°
Sets 00:19:32 0° 28° (NNE) 3,393 7.2 -19.1°
